Overview Statistics Trail Chart Weather Telemetry Raw packets
 

This is the latest recevied weather packets stored in our database for station/object W1CAT. If no packets are shown the sender has not sent any weather packets the latest 10 day(s).

<< 1 2 3 4 >>
Time Temp. Humidity Pressure Rain* Wind** Luminosity Snow
1788575279 14.44° C 77% - 0 mm - - -
1788574975 14.44° C 78% - 0 mm - - -
1788574674 15° C 77% - 0 mm - - -
1788574369 15° C 77% - 0 mm - - -
1788574064 15.56° C 76% - 0 mm - - -
1788573760 16.11° C 74% - 0 mm - - -
1788573458 16.67° C 71% - 0 mm - - -
1788573152 17.22° C 70% - 0 mm - - -
1788572851 17.22° C 69% - 0 mm - - -
1788572547 16.67° C 76% - 0 mm - - -
1788572242 17.22° C 71% - 0 mm - - -
1788571938 17.78° C 71% - 0 mm - - -
1788571634 18.33° C 66% - 0 mm - - -
1788571329 18.89° C 65% - 0 mm - - -
1788571026 19.44° C 63% - 0 mm - - -
1788570721 19.44° C 56% - 0 mm - - -
1788570416 20.56° C 61% - 0 mm - - -
1788570112 21.67° C 60% - 0 mm - - -
1788569808 22.78° C 55% - 0 mm - - -
1788569502 23.89° C 46% - 0 mm - - -
1788569198 22.78° C 47% - 0 mm - - -
1788568893 22.78° C 45% - 0 mm - - -
1788568588 22.22° C 44% - 0 mm - - -
1788568284 22.78° C 43% - 0 mm - - -
1788567979 23.33° C 44% - 0 mm - - -

* Rain latest hour (hover to see other rain measurements)
** Current wind speed in m/s (hover to see current wind gust speed)